This is the latest recevied weather packets stored in our database for station/object WX9WTF. If no packets are shown the sender has not sent any weather packets the latest 10 day(s).
| Time | Temp. | Humidity | Pressure | Rain* | Wind** | Luminosity | Snow |
|---|---|---|---|---|---|---|---|
| 1777487981 | 15.56° C | 54% | 1020.3 hPa | 0 mm | - | 544 W/m² | - |
| 1777487375 | 15.56° C | 57% | 1020.6 hPa | 0 mm | - | 608 W/m² | - |
| 1777484347 | 15° C | 61% | 1021.7 hPa | 0 mm | - | 934 W/m² | - |
| 1777484043 | 14.44° C | 60% | 1021.5 hPa | 0 mm | - | 577 W/m² | - |
| 1777483739 | 14.44° C | 63% | 1021.3 hPa | 0 mm | - | 799 W/m² | - |
| 1777483435 | 14.44° C | 60% | 1021.8 hPa | 0 mm | - | 361 W/m² | - |
| 1777483130 | 13.89° C | 61% | 1021.8 hPa | 0 mm | - | 321 W/m² | - |
| 1777482828 | 15° C | 61% | 1021.8 hPa | 0 mm | - | 280 W/m² | - |
| 1777481918 | 13.89° C | 63% | 1021.8 hPa | 0 mm | - | 361 W/m² | - |
| 1777481313 | 13.89° C | 62% | 1021.7 hPa | 0 mm | - | 282 W/m² | - |
| 1777481009 | 13.89° C | 63% | 1022 hPa | 0 mm | - | 775 W/m² | - |
| 1777480706 | 14.44° C | 61% | 1022 hPa | 0 mm | - | 930 W/m² | - |
| 1777480403 | 13.89° C | 63% | 1021.7 hPa | 0 mm | - | 971 W/m² | - |
| 1777480099 | 13.33° C | 63% | 1021.8 hPa | 0 mm | - | 889 W/m² | - |
| 1777479795 | 13.33° C | 66% | 1021.7 hPa | 0 mm | - | 833 W/m² | - |
| 1777479493 | 13.33° C | 65% | 1021.8 hPa | 0 mm | - | 211 W/m² | - |
| 1777479190 | 14.44° C | 64% | 1021.8 hPa | 0 mm | - | 930 W/m² | - |
| 1777478887 | 14.44° C | 62% | 1021.7 hPa | 0 mm | - | 605 W/m² | - |
| 1777478583 | 14.44° C | 64% | 1021.6 hPa | 0 mm | - | 859 W/m² | - |
| 1777478280 | 13.33° C | 65% | 1021.6 hPa | 0 mm | - | 844 W/m² | - |
| 1777477672 | 12.78° C | 64% | 1021.3 hPa | 0 mm | - | 702 W/m² | - |
| 1777477065 | 13.33° C | 68% | 1021.3 hPa | 0 mm | - | 746 W/m² | - |
| 1777476763 | 13.33° C | 66% | 1021.6 hPa | 0 mm | - | 730 W/m² | - |
| 1777475548 | 12.78° C | 65% | 1021.3 hPa | 0 mm | - | 624 W/m² | - |
| 1777474333 | 13.33° C | 66% | 1021.3 hPa | 0 mm | - | 576 W/m² | - |
* Rain latest hour (hover to see other rain measurements)
** Current wind speed in m/s (hover to see current wind gust speed)